Location: Smithers
(54.7670°N, 127.1670°W)
Time: 12:22:25
(UTC-08:00)

Daily predictions for brighter satellites

Satellite Brightness Start Highest point End
(mag) Time Altitude Azimuth Time Altitude Azimuth Time Altitude Azimuth
USA 238 DEB 4.2 17:14:51 10° W 17:21:44 53° NNW 17:28:38 10° NE
USA 238 4.2 17:14:57 10° W 17:21:49 54° NNW 17:28:45 10° NE
MOS 1 4.3 17:16:52 10° SSE 17:22:29 67° ENE 17:28:08 10° NNW
ATLAS 3B R/B 3.4 17:17:02 10° W 17:24:05 45° NNW 17:30:48 10° ENE
Cosmos 2278 Rocket 2.3 17:19:01 10° NNW 17:24:46 86° ENE 17:30:27 10° SSE
Cosmos 2322 Rocket 3.1 17:19:38 10° WSW 17:25:06 46° NW 17:30:34 10° NNE
Cosmos 2151 4.3 17:22:17 10° SE 17:25:22 20° E 17:28:28 10° NE
Cosmos 1674 3.0 17:22:43 10° S 17:26:26 49° E 17:30:11 10° NNE
CZ-4 R/B 1.3 17:23:04 10° SSE 17:26:57 75° ENE 17:30:55 10° NNW
SJ-12 3.9 17:24:05 10° SSE 17:28:12 76° ENE 17:32:21 10° NNW
Cosmos 1908 3.6 17:24:35 10° NNW 17:28:29 72° W 17:32:23 10° S
CZ-4C R/B 3.3 17:23:03 10° WNW 17:28:45 40° N 17:35:15 10° ENE
Lacrosse 5 1.9 17:27:50 10° WSW 17:32:56 82° NNW 17:38:03 10° ENE
Cosmos 2228 Rocket 3.2 17:29:08 10° NNW 17:33:35 87° WSW 17:38:02 10° S
Resurs 01 Rocket 3.3 17:31:25 10° E 17:33:38 14° NE 17:35:50 10° NNE
SJ-6B 4.3 17:31:28 10° E 17:34:20 18° ENE 17:37:13 10° NNE
COSMOS 2455 3.9 17:30:08 10° W 17:35:40 36° NNW 17:41:14 10° NE
USA 215 3.4 17:29:25 10° ESE 17:36:00 89° S 17:42:37 10° WNW
Cosmos 1900 4.3 17:31:07 10° NW 17:36:04 72° NE 17:41:03 10° SE
Meteor 2-2 Rocket 4.3 17:30:40 10° NNW 17:36:21 89° ENE 17:42:01 10° SSE
Meteor 1-21 Rocket 4.3 17:31:31 10° S 17:37:23 73° E 17:43:11 10° NNE
USA 161 4.2 17:36:56 10° NW 17:37:57 12° WNW 17:38:56 10° W
Cosmos 1328 Rocket 3.8 17:35:41 10° NNW 17:40:09 80° W 17:44:36 10° S
Cosmos 1300 2.8 17:37:54 10° N 17:41:43 56° ENE 17:45:30 10° SSE
Cosmos 1151 Rocket 3.0 17:39:34 10° N 17:43:51 64° ENE 17:48:06 10° SSE
Cosmos 1242 Rocket 4.4 17:43:16 10° NE 17:44:23 11° NE 17:44:52 11° ENE
Cosmos 2279 Rocket 4.2 17:38:33 10° N 17:44:37 51° ENE 17:50:40 10° SSE
NOSS 3-2 (A) 4.0 17:38:47 10° WSW 17:45:05 60° NNW 17:52:09 10° NE
Cosmos 1743 Rocket 3.7 17:42:57 10° S 17:47:22 61° E 17:51:48 10° NNE
Cosmos 1076 Rocket 4.1 17:43:29 10° SSW 17:47:42 59° WNW 17:51:58 10° N
Meteor 1-27 4.3 17:43:48 10° N 17:49:34 60° ENE 17:55:20 10° SSE
Lacrosse 4 Rocket 1.9 17:45:54 10° NNW 17:49:45 38° NE 17:53:33 10° ESE
Blok-2BL 4.0 17:46:49 10° NW 17:49:59 35° NNE 17:52:56 11° E
SL-16 R/B 4.1 17:45:14 10° N 17:50:41 32° NW 17:56:06 10° WSW
NOSS 3-2 (C) 4.0 17:45:29 10° WSW 17:51:48 64° NNW 17:58:48 10° NE
CZ-2C R/B 2.7 17:47:10 10° S 17:52:04 71° WSW 17:56:50 10° NNW
Cosmos 1515 Rocket 3.8 17:47:35 10° NNW 17:52:05 80° W 17:56:32 10° S
Cosmos 2369 Rocket 3.2 17:47:45 10° NNW 17:52:30 26° NNE 17:56:59 11° E
EO 1 Del DPAF 4.1 17:51:15 10° N 17:55:03 53° WNW 17:58:49 10° SW
Cosmos 332 Rocket 3.9 17:50:37 10° SSW 17:55:24 63° ESE 18:00:15 10° NNE
Cosmos 2237 Rocket 2.8 17:50:41 10° S 17:55:47 37° ESE 18:00:56 10° NE
Cosmos 1125 Rocket 4.1 17:51:24 10° NNW 17:56:33 61° WSW 18:01:40 10° S
Cosmos 1814 Rocket 4.3 17:52:19 10° SW 17:57:41 73° WNW 18:03:05 10° NNE
SL-14 R/B 3.9 17:54:31 10° SSE 17:58:10 36° E 18:01:53 10° NNE
Cosmos 1340 Rocket 3.9 17:56:41 10° SE 17:59:52 24° E 18:02:56 11° NE
Cosmos 44 4.2 17:55:32 10° S 18:00:12 35° ESE 18:03:55 14° ENE
SKYMED 2 4.5 17:56:32 10° NNE 18:00:20 28° E 18:04:07 10° SSE
Cosmos 1484 Rocket 2.8 17:57:03 10° SSE 18:01:00 67° ENE 18:05:01 10° N
COSMOS 2441 4.4 17:58:08 10° SSE 18:03:00 89° ENE 18:07:52 10° NNW
COSMOS 2428 2.8 17:57:47 10° SSW 18:03:32 88° NW 18:09:17 10° NNE
SL-16 R/B 3.4 17:59:43 10° SSE 18:03:52 21° ESE 18:06:54 14° ENE
Meteor 1-28 Rocket 4.4 18:04:41 14° NE 18:06:51 22° E 18:09:46 10° SE
CENTAUR R/B 2.7 18:00:59 10° SW 18:07:21 83° SE 18:14:05 12° NE
ALOS 3.3 18:03:47 10° ESE 18:07:35 25° ENE 18:11:22 10° N
Cosmos 1869 4.5 18:04:20 10° N 18:07:37 23° ENE 18:10:52 10° ESE
Cosmos 841 Rocket 3.5 18:02:50 10° SSW 18:08:07 86° ESE 18:13:25 10° NNE
Cosmos 2237 4.4 18:02:30 10° SW 18:08:13 74° NW 18:13:59 10° NNE
Cosmos 2084 3.7 18:04:57 10° SSW 18:08:37 43° SE 18:11:06 18° ENE
Cosmos 2297 3.7 18:02:59 10° NNW 18:08:44 90° ENE 18:14:28 10° SSE
Meteor 2-10 3.9 18:04:34 10° NNW 18:09:41 78° ENE 18:14:53 10° SSE
Thor Agena Rocket 3.6 18:05:20 10° NNE 18:10:35 62° ESE 18:15:43 10° S
Spot 2 Rocket 4.3 18:07:10 10° ESE 18:11:25 28° ENE 18:15:40 10° N
Cosmos 2180 Rocket 4.5 18:05:42 10° N 18:11:49 64° ENE 18:17:59 10° SSE
Cosmos 1500 Rocket 3.5 18:08:25 10° S 18:12:46 77° E 18:17:10 10° NNE
Cosmos 2058 3.3 18:10:10 10° SSE 18:14:01 41° E 18:17:54 10° NNE
Cosmos 1461 4.5 18:14:14 10° SSE 18:16:54 17° ESE 18:17:38 16° ESE
MONITOR-E 4.5 18:16:05 10° S 18:19:15 72° WSW 18:22:27 10° NNW
SPOT 3 Rocket 4.5 18:15:53 10° S 18:20:55 53° WSW 18:26:01 10° NNW
Sich 1 4.1 18:17:30 10° SE 18:21:04 24° E 18:22:59 18° NE
Cosmos 371 Rocket 3.2 18:18:53 10° SSW 18:23:41 81° ESE 18:28:30 10° NNE
GEOS 3 Rocket 4.4 18:19:44 13° NE 18:24:04 43° NNW 18:29:00 10° W
SMAP 4.4 18:20:06 10° S 18:24:32 42° W 18:29:00 10° NNW
Orbus 7S? 3.9 18:21:36 10° WNW 18:24:51 71° SSW 18:31:34 10° ESE
SL-16 R/B 3.9 18:24:03 10° W 18:28:46 26° NNW 18:33:30 10° NNE
Cosmos 1633 Rocket 4.0 18:26:28 10° SE 18:30:05 26° E 18:31:03 24° ENE
H-2A R/B 4.2 18:31:41 19° NE 18:31:41 19° NE 18:33:33 10° N
NOSS 0 Rocket 3.9 18:27:07 10° SSW 18:33:18 70° ESE 18:38:44 14° NE
Lacrosse 5 rocket 4.2 18:31:31 10° W 18:33:45 15° SW 18:36:03 10° SSW
Cosmos 1867 4.0 18:29:18 10° NW 18:34:34 43° NNE 18:37:30 23° E
Cosmos 1356 Rocket 4.1 18:31:17 10° SSE 18:34:47 30° E 18:35:32 28° ENE
FENGYUN 3A 4.0 18:30:42 10° SE 18:35:44 43° ENE 18:40:49 10° N
FREGAT/IRIS 2.9 18:32:54 10° SE 18:35:49 44° ENE 18:38:47 10° N
METEOR-M 4.0 18:32:51 10° SSE 18:38:11 71° ENE 18:43:32 10° NNW
Aureole 2 Rocket 2.9 18:34:30 10° S 18:38:18 53° ESE 18:40:33 24° NE
Cosmos 2360 Rocket 3.4 18:33:37 10° WSW 18:38:47 36° NW 18:43:59 10° NNE
Cosmos 1980 Rocket 4.2 18:37:23 10° NW 18:41:01 17° NNW 18:44:40 10° NNE
ATLAS 5 CENTAUR R/B 2.7 18:38:45 10° NW 18:44:02 44° NNE 18:46:55 26° ENE
USA 116 4.3 18:40:59 10° N 18:44:08 44° WNW 18:47:07 10° SW
Cosmos 1980 3.6 18:38:29 10° SSW 18:44:10 79° ESE 18:48:46 16° NE
Cosmos 1862 Rocket 4.2 18:40:31 10° N 18:44:32 32° ENE 18:45:15 31° E
Cosmos 44 Rocket 3.3 18:40:49 10° SW 18:45:55 89° SSE 18:48:59 24° NE
Helios 1A 3.9 18:46:55 28° NE 18:46:55 28° NE 18:50:15 10° N
Cosmos 1626 2.5 18:43:32 10° SSE 18:47:04 41° E 18:47:40 38° ENE
Cosmos 1707 Rocket 3.5 18:43:11 10° NNW 18:47:33 90° ENE 18:51:54 10° S
SL-19 R/B 4.2 18:42:33 10° SE 18:48:12 64° ENE 18:53:43 10° NNW
COSMO-SKYMED 1 2.5 18:44:15 10° NNE 18:48:37 74° ESE 18:52:58 10° S
NOAA 12 4.1 18:44:51 10° SSE 18:50:07 90° E 18:55:27 10° NNW
Meteor 1-11 4.2 18:44:40 10° S 18:50:24 83° ESE 18:56:15 10° NNE
Cosmos 1455 2.1 18:53:52 10° NNW 18:57:41 89° WSW 19:01:30 10° S
Cosmos 304 Rocket 3.8 18:55:01 10° S 18:59:45 60° ESE 19:01:57 30° NE
Cosmos 540 Rocket 3.5 18:55:27 10° SSW 19:00:39 80° WNW 19:04:51 16° NNE
Cosmos 1943 Rocket 2.8 18:56:37 10° NNW 19:01:38 33° NE 19:02:33 31° ENE
Cosmos 2151 3.6 18:58:11 10° SSW 19:02:19 55° WNW 19:06:29 10° N
Cosmos 2219 Rocket 2.6 18:57:05 10° SW 19:02:41 62° NW 19:07:12 16° NNE
Cosmos 2084 Rocket 3.0 19:00:02 10° NW 19:03:50 74° NE 19:04:33 55° E
Cosmos 1666 Rocket 3.5 19:00:56 10° S 19:05:13 59° E 19:07:22 28° NNE
Cosmos 2333 Rocket 2.4 19:00:21 10° SW 19:06:00 71° NW 19:10:16 18° NNE
FengYun 1-2 T 4.1 19:00:50 10° SSE 19:06:21 72° ENE 19:11:52 10° NNW
Cosmos 1703 3.1 19:04:16 10° S 19:08:10 86° E 19:10:19 26° NNE
SJ-6B 3.1 19:04:26 10° S 19:08:33 75° WSW 19:12:44 10° NNW
Resurs 01 Rocket 1.5 19:04:56 10° SSE 19:09:21 66° ENE 19:13:46 10° N
Cosmos 2322 Rocket 4.2 19:06:35 10° WNW 19:10:36 19° NNW 19:14:13 11° NNE
Resurs 1-3 3.6 19:09:58 36° SE 19:11:33 59° ENE 19:15:54 10° N
USA 238 DEB 4.4 19:07:21 10° WNW 19:14:00 42° N 19:16:56 29° NE
USA 238 4.4 19:07:26 10° WNW 19:14:05 42° N 19:17:03 29° NE
Lacrosse 5 1.9 19:11:08 10° WNW 19:16:14 69° N 19:17:32 48° ENE
ATLAS 3B R/B 3.3 19:09:25 10° WNW 19:16:15 43° N 19:18:46 32° NE
CZ-4C R/B 3.0 19:12:19 10° NW 19:18:35 50° NNE 19:21:00 37° ENE
USA 215 4.1 19:13:11 10° SE 19:19:28 47° SW 19:25:45 10° WNW
Cosmos 1242 Rocket 3.0 19:16:30 10° NNW 19:19:07 47° N 19:19:07 47° N
Blok-2BL 4.0 19:19:55 10° WNW 19:23:13 50° SW 19:23:24 49° SW
COSMOS 2455 4.2 19:18:19 10° NW 19:23:17 25° N 19:25:15 22° NNE
Spot 1 4.0 19:26:45 63° ESE 19:27:17 70° ENE 19:31:38 10° NNW
Lacrosse 4 Rocket 2.6 19:24:40 10° NW 19:28:30 40° WSW 19:31:20 16° S
HJ-1C 3.8 19:29:47 62° WNW 19:29:47 62° WNW 19:32:53 10° NNW
Cosmos 2242 Rocket 4.0 19:30:08 10° NNW 19:34:31 61° W 19:38:53 10° S
Cosmos 921 Rocket 3.9 19:30:22 10° NNW 19:33:19 37° N 19:33:19 37° N
Cosmos 1340 Rocket 4.0 19:32:25 10° SW 19:36:10 41° WNW 19:38:37 19° N
NOSS 3-2 (A) 4.5 19:30:52 10° WNW 19:37:11 42° N 19:39:41 32° NE
Cosmos 2369 Rocket 2.0 19:31:42 10° NNW 19:37:26 79° NE 19:38:50 53° SE
Cosmos 2237 Rocket 2.8 19:34:10 10° SW 19:39:42 55° NW 19:42:52 25° NNE
Meteor 1-28 Rocket 4.2 19:39:40 28° NNW 19:41:08 44° WNW 19:44:42 10° SW
Cosmos 44 3.6 19:36:12 10° WSW 19:41:18 62° NW 19:42:22 49° NNE
Cosmos 1805 Rocket 4.5 19:39:22 10° SSW 19:43:41 48° WNW 19:47:37 12° N
NOSS 3-2 (C) 4.5 19:37:35 10° WNW 19:43:53 42° N 19:46:15 33° NE
Cosmos 1869 4.3 19:40:16 10° NNW 19:44:11 48° W 19:48:04 10° S
ALOS 2.7 19:40:05 10° S 19:44:42 62° WSW 19:49:22 10° NNW
Cosmos 2056 Rocket 3.6 19:41:13 10° NNW 19:45:42 56° NNE 19:45:42 56° NNE
SL-16 R/B 2.1 19:41:39 10° SSW 19:47:19 87° WNW 19:48:50 51° NNE
S3M 4.0 19:41:21 10° N 19:47:41 59° ENE 19:47:56 59° E
Cosmos 839 Rocket 4.2 19:41:15 10° NW 19:47:53 52° NNE 19:48:27 51° NE
Cosmos 2084 4.2 19:44:30 10° W 19:47:42 41° NW 19:47:42 41° NW
COSMOS 2428 4.3 19:43:40 10° W 19:48:34 28° NW 19:51:53 17° NNE
Spot 2 Rocket 3.9 19:45:05 10° S 19:50:04 62° WSW 19:55:06 10° NNW
Meteor 1-26 Rocket 4.1 19:44:56 10° N 19:50:32 68° ENE 19:50:32 68° ENE
Cosmos 1624 Rocket 4.0 19:45:47 10° NNW 19:50:48 68° NNE 19:50:48 68° NNE
Cosmos 1461 3.9 19:51:25 10° SW 19:54:08 40° SW 19:54:08 40° SW
Nadezhda 4 Rocket 4.3 19:51:10 10° SSW 19:57:25 67° WNW 20:03:46 10° N
Sich 1 3.9 19:54:11 10° SSW 19:58:31 50° WNW 20:00:04 34° NNW
CENTAUR R/B 3.4 19:52:12 10° W 19:58:40 49° NNW 20:01:17 35° NNE
Iridium 4 Rocket 4.0 19:55:11 10° SSW 19:58:06 39° SSW 19:58:06 39° SSW
Envisat 4.3 20:07:05 30° N 20:07:05 30° N 20:09:40 10° N
USA 229 DEB 3.8 19:58:37 10° SSW 20:04:43 55° SSE 20:04:43 55° SSE
USA 229 3.8 19:58:44 10° SSW 20:04:46 54° SSE 20:04:46 54° SSE
Cosmos 1538 Rocket 4.3 20:01:35 10° SW 20:06:54 66° WNW 20:07:49 56° N
Cosmos 1633 Rocket 4.0 20:03:25 10° SSW 20:07:41 46° WNW 20:08:14 44° NW
Meteor 2-10 Rocket 4.4 20:04:45 10° NNW 20:07:44 36° N 20:07:44 36° N
Cosmos 1371 Rocket 4.1 20:05:33 10° NNW 20:10:20 70° WNW 20:10:20 70° WNW
SL-16 R/B 4.3 20:11:33 10° NW 20:14:57 16° N 20:15:54 15° N
Cosmos 1553 Rocket 3.8 20:10:03 10° N 20:16:10 87° NNE 20:16:10 87° NNE
Cosmos 1867 3.8 20:13:02 10° NW 20:18:11 65° WSW 20:18:11 65° WSW
Cosmos 1092 Rocket 4.4 20:12:41 10° SSW 20:18:59 64° WNW 20:25:19 10° N
Cosmos 1626 4.5 20:19:36 10° WSW 20:22:26 23° WNW 20:22:26 23° WNW
Cosmos 2360 Rocket 4.3 20:20:51 10° NW 20:24:30 17° NNW 20:25:55 16° N
Cosmos 1980 Rocket 4.2 20:23:48 10° NNW 20:26:35 16° N 20:26:35 16° N
ATLAS 5 CENTAUR R/B 2.5 20:23:30 10° NW 20:28:29 68° WNW 20:28:29 68° WNW
Aureole 1 Rocket 4.3 20:24:35 10° SW 20:30:43 72° WNW 20:33:43 39° NNE
Cosmos 1943 Rocket 3.1 20:40:19 10° NW 20:44:07 44° NW 20:44:07 44° NW
Resurs 01 Rocket 4.1 20:42:59 10° SW 20:46:15 20° W 20:49:33 10° NW
Cosmos 2219 Rocket 4.1 20:43:23 10° WNW 20:47:46 23° NNW 20:48:56 21° N
Cosmos 2333 Rocket 4.0 20:46:41 10° W 20:51:17 25° NNW 20:52:17 23° NNW
Cosmos 2322 Rocket 4.4 20:53:35 10° NNW 20:56:02 15° N 20:56:02 15° N
Lacrosse 5 3.7 20:54:16 10° WNW 20:56:44 29° WNW 20:56:44 29° WNW
USA 238 DEB 4.4 20:59:06 10° NW 21:04:23 49° NNW 21:04:23 49° NNW
USA 238 4.4 20:59:11 10° NW 21:04:29 49° NNW 21:04:29 49° NNW
CZ-4C R/B 3.2 21:00:55 10° NW 21:06:13 59° WNW 21:06:13 59° WNW
ATLAS 3B R/B 3.3 21:00:49 10° NW 21:06:01 51° NW 21:06:01 51° NW
Cosmos 2369 Rocket 4.1 21:16:26 10° NW 21:20:40 24° W 21:20:40 24° W
Cosmos 2237 Rocket 4.3 21:20:46 10° WNW 21:24:44 21° NNW 21:24:44 21° NNW
SL-16 R/B 4.1 21:27:23 10° W 21:30:46 25° WNW 21:30:46 25° WNW
CENTAUR R/B 4.1 21:44:02 10° WNW 21:48:28 35° NNW 21:48:28 35° NNW
